Regional Weather Roundup
Issued by NWS

Home | Current Version | Previous Version | Graphics & Text | Print | Product List | Glossary On
Versions: 1 2 3 4 5 6 7 8 9 10 11 12 13 14 15 16 17 18 19 20 21 22 23 24 25 26 27
000
ASUS45 KSLC 211810
RWRUT

UTAH REGIONAL WEATHER ROUNDUP
NATIONAL WEATHER SERVICE SALT LAKE CITY UT
1200 PM MDT FRI JUL 21 2017

UTZ001>011-023>025-211900-

NORTHERN UTAH

CITY           SKY/WX    TMP DP  RH WIND       PRES   REMARKS
BRIGHAM CITY   SUNNY     87  35  15 CALM      30.10S
HILL AFB       SUNNY     85  52  31 S5        30.13S
LOGAN          SUNNY     84  52  33 VRB3      30.12S
OGDEN          SUNNY     88  57  34 W8        30.09S
SALT LAKE CITY MOSUNNY   90  52  27 S3        30.07S
TOOELE VALLEY  SUNNY     88  52  29 N8        30.10R
WENDOVER       SUNNY     88  37  16 VRB7      30.10S
HEBER CITY     SUNNY     86  46  25 W6        30.16F
WEST JORDAN    SUNNY     86  61  42 S8        30.11F

$$

UTZ011>015-024>027-211900-

CENTRAL/NORTHEAST UTAH

CITY           SKY/WX    TMP DP  RH WIND       PRES   REMARKS
PROVO AIRPORT  SUNNY     87  54  32 S7        30.11F
MOAB/CANYONLAN MOSUNNY   86  55  34 CALM      30.11F
DELTA          SUNNY     88  45  22 S7        30.13R
PRICE          MOSUNNY   82  51  34 VRB3      30.22F
ROOSEVELT      SUNNY     86  50  28 SW3       30.17F
VERNAL         SUNNY     86  52  30 SE8       30.16F

$$

UTZ013>016-019>022-027-211900-

SOUTHERN UTAH

CITY           SKY/WX    TMP DP  RH WIND       PRES   REMARKS
BRYCE CANYON   SUNNY     77  50  38 N6        30.36S
CEDAR CITY     MOSUNNY   87  47  24 SW9       30.20S
MILFORD        SUNNY     87  50  27 S10       30.14S
ST GEORGE      CLEAR     92  54  27 VRB5      30.02F HX  90
HANKSVILLE     MOSUNNY   88  52  29 W5        30.14F
BLANDING       CLOUDY    72  58  61 SW5       30.33S

$$

REGIONAL REPORTS     COLORADO/ARIZONA

CITY           SKY/WX    TMP DP  RH WIND       PRES   REMARKS
CRAIG, CO      PTSUNNY   82  48  30 NW6       30.23F
GRAND JUNCTION MOSUNNY   84  51  31 CALM      30.14F
RIFLE, CO      SUNNY     77  54  44 W6        30.20F
MONTROSE, CO   SUNNY     83  48  29 NW8       30.21F
CORTEZ, CO     CLOUDY    80  54  40 CALM      30.23F
COLORADO CITY    N/A     90  50  25 NW8       30.20S
PAGE, AZ       MOSUNNY   86  58  38 CALM      30.11F
GRAND CANYON   MOSUNNY   77  54  44 VRB7      30.32S
KINGMAN, AZ    SUNNY     92  53  26 S9        30.09S
FLAGSTAFF, AZ  PTSUNNY   68  58  70 VRB7      30.35R

$$

REGIONAL REPORTS    NEVADA/IDAHO/WYOMING

CITY           SKY/WX    TMP DP  RH WIND       PRES   REMARKS
LAS VEGAS, NV  MOSUNNY   98  41  14 VRB7      29.95S HX  93
ELY, NY        SUNNY     79  41  25 VRB5      30.24S
ELKO, NV       SUNNY     84  29  13 NE5       30.16F
POCATELLO, ID  SUNNY     81  41  24 VRB6      30.16S
BURLEY, ID     SUNNY     78  48  34 W7        30.13S
FORT BRIDGER,  MOCLDY    76  50  40 CALM      30.32S
EVANSTON, WY   SUNNY     78  51  38 W10       30.30R
ROCK SPRINGS,  CLOUDY    76  52  43 SW8       30.28S
KEMMERER, WY     N/A     79  36  21 CALM      30.31S

$$




USA.gov is the U.S. government's official web portal to all federal, state and local government web resources and services.